Regional Weather Roundup
Issued by NWS Boston, MA

Home | Current Version | Previous Version | Text Only | Print | Product List | Glossary On
Versions: 1 2 3 4 5 6 7 8 9 10 11 12 13 14 15 16 17 18 19 20 21 22 23 24 25 26 27 28 29 30 31 32 33 34 35 36 37 38 39 40 41 42 43 44 45 46 47
000
ASUS41 KBOX 210610
RWRBOX

REGIONAL WEATHER ROUNDUP
NATIONAL WEATHER SERVICE TAUNTON MA
100 AM EST SUN DEC 21 2014

NOTE:  "FAIR" INDICATES FEW OR NO CLOUDS BELOW 12,000 FEET WITH NO
SIGNIFICANT WEATHER AND/OR OBSTRUCTIONS TO VISIBILITY.  THE FOLLOWING
OBSERVATION LOCATIONS DO NOT REPORT PRESENT WEATHER...PROVINCETOWN...
SMITHFIELD...BLOCK ISLAND...KEENE...AND OXFORD.

MAZALL-210700-
EASTERN MASSACHUSETTS

CITY           SKY/WX    TMP DP  RH WIND       PRES   REMARKS
BOSTON         CLOUDY    35  29  78 NE15      30.28F WCI  25
6HR MIN TEMP:  34; 6HR MAX TEMP:  36; 6HR PCP: TRACE;

BEVERLY        CLOUDY    34  28  79 NE9       30.28S WCI  27
LAWRENCE       CLOUDY    31  25  78 NE6       30.30S WCI  25
BEDFORD        CLOUDY    31  25  78 NW5       30.27F WCI  26
BLUE HILL        N/A     31  30  96 NE9       30.23F WCI  23
NORWOOD        CLOUDY    33  30  88 CALM      30.27F
MARSHFIELD     CLOUDY    39  34  81 NE10G17   30.28S
PLYMOUTH       CLOUDY    36  34  92 NE8       30.25F WCI  30
TAUNTON        CLOUDY    35  33  92 N3        30.26S FOG
NEW BEDFORD    CLOUDY    34  34 100 CALM      30.25S
$$

MAZALL-210700-
CAPE COD AND THE ISLANDS

CITY           SKY/WX    TMP DP  RH WIND       PRES   REMARKS
FALMOUTH       CLOUDY    37  36  93 NE12      30.24S WCI  30
HYANNIS        CLOUDY    37  35  92 NE9       30.23F WCI  30
CHATHAM        LGT RAIN  37  34  89 CALM      30.25F
PROVINCETOWN   CLOUDY    37  34  87 NE18G25   30.26S WCI  27
NANTUCKET      CLOUDY    40  35  83 NE8       30.22F
MARTHAS VNYRD  CLOUDY    38  35  89 NE10      30.23F WCI  31
$$

MAZALL-210700-
CENTRAL AND WESTERN MASSACHUSETTS

CITY           SKY/WX    TMP DP  RH WIND       PRES   REMARKS
WORCESTER      CLOUDY    28  24  85 NE7       30.23F WCI  21
6HR MIN TEMP:  27; 6HR MAX TEMP:  29; 6HR PCP: TRACE;

FITCHBURG      CLOUDY    32  23  69 NW3       30.29F
ORANGE         CLOUDY    30  26  85 N5        30.27S FOG     WCI  25
SPRINGFIELD    CLOUDY    31  28  88 N5        30.27S WCI  26
WESTFIELD      CLOUDY    31  26  82 N6        30.27F WCI  25
NORTH ADAMS    CLOUDY    26  20  77 CALM      30.27F
PITTSFIELD     CLOUDY    27  21  78 CALM      30.21F
$$

RIZALL-210700-
RHODE ISLAND

CITY           SKY/WX    TMP DP  RH WIND       PRES   REMARKS
PROVIDENCE     LGT SNOW  32  31  96 N9        30.26F FOG     WCI  24
6HR MIN TEMP:  31; 6HR MAX TEMP:  32; 6HR PCP:  0.08;

NEWPORT        CLOUDY    34  33  96 N9        30.24S WCI  27
BLOCK ISLAND   CLOUDY    37  34  87 NE10G16   30.23R WCI  30
SMITHFIELD     CLOUDY    30  23  74 N6        30.24S WCI  24
WESTERLY       CLOUDY    34  30  85 N6        30.26S WCI  29
$$

CTZALL-210700-
CONNECTICUT

CITY           SKY/WX    TMP DP  RH WIND       PRES   REMARKS
BRADLEY INTL   CLOUDY    32  27  81 N7        30.27S WCI  26
6HR MIN TEMP:  31; 6HR MAX TEMP:  33;

HARTFORD       CLOUDY    32  27  81 VRB6      30.28S WCI  26
BRIDGEPORT     CLOUDY    33  26  75 N3        30.28S
DANBURY        FLURRIES  29  22  75 W3        30.27S
GROTON         CLOUDY    33  29  85 N5        30.25S WCI  29
NEW HAVEN      CLOUDY    35  24  64 N6        30.27S WCI  30
CHESTER        CLOUDY    32  28  86 N5        30.25S WCI  27
MERIDEN        CLOUDY    33  26  75 N6        30.27S WCI  28
WILLIMANTIC    CLOUDY    33  27  78 N3        30.27S
OXFORD         CLOUDY    30  21  69 NE3       30.24F
$$

MEZ002-015-021-024-NHZ003-005-008-011-012-014-VTZ005-008-210700-
NORTHERN NEW ENGLAND

CITY           SKY/WX    TMP DP  RH WIND       PRES   REMARKS
PORTLAND ME    CLOUDY    22  18  85 N13       30.34F WCI  10
6HR MIN TEMP:  22; 6HR MAX TEMP:  29;

BANGOR ME      CLOUDY    23  20  88 N5        30.35S WCI  17
CONCORD NH     CLOUDY    28  22  78 NE6       30.29F WCI  22
MANCHESTER NH  CLOUDY    30  22  72 N9        30.28S WCI  22
NASHUA NH      CLOUDY    31  23  72 N5        30.30F WCI  26
PORTSMOUTH NH  MOCLDY    25  21  85 N8        30.30S WCI  17
JAFFREY NH     CLOUDY    28  22  78 VRB3      30.25S
KEENE NH       CLOUDY    30  23  74 CALM      30.28S
BURLINGTON VT  CLOUDY    19  16  88 E3        30.32S FOG
MT. WASHINGTON MOCLDY    19 -11  25 SE13        N/A  WCI   7
$$

NYZ052-076-210700-
EASTERN NEW YORK

CITY           SKY/WX    TMP DP  RH WIND       PRES   REMARKS
ALBANY         CLOUDY    28  19  69 N3        30.30S
6HR MIN TEMP:  27; 6HR MAX TEMP:  29;

NEW YORK CITY  CLOUDY    32  23  69 NW7       30.28F WCI  26
6HR MIN TEMP:  32; 6HR MAX TEMP:  33;

$$

ANZALL-210700-
MARINE OBSERVATIONS

STATION/POSITION TIME  TEMP    WIND        PRES    VSBY  WAVE
                       AIR SEA DIR/SP/G                  HT/PER
                 (UTC) (F)     (DEG/KT/KT) (MB)    (MI)  (FT/S)
BOSTON BUOY      0550   38 45   40/ 17/ 21 1024.9F         5/ 5
BUZZARDS BAY     0500           30/ 12/ 13 1024.7F
NANTUCKET SOUND  0550   41 43   50/ 14/ 16 1023.3F         2/ 4
MASS BAY-STELLWA 0504   37 45   10/ 16/ 19   N/A    1 7/8  4/ 6
ISLE OF SHOALS   0600   29      30/ 22/ 23 1025.0F
S OF BLOCK IS    0508      51                N/A           3/ 4
$$

......................KEY.........................
  SKY/WX - SKY CONDITION/PRESENT WEATHER
  TMP    - TEMPERATURE IN FAHRENHEIT
  DWPT   - DEWPOINT IN FAHRENHEIT
  RH     - RELATIVE HUMIDITY IN PERCENT
  WIND   - DIRECTION AND SPEED IN MPH
  PRES   - MEAN SEA LEVEL PRESSURE IN INCHES OF HG
  WCI    - WIND CHILL INDEX
  VSB    - VISIBILITY IN MILES
  HX     - HEAT INDEX
  TC     - TEMPERATURE IN CELSIUS
  VRB    - VARIABLE WIND DIRECTION
  N/A    - NOT AVAILABLE


USA.gov is the U.S. government's official web portal to all federal, state and local government web resources and services.